When you browse on this site, cookies collect data to enhance your experience and personalize the content and advertising you see.
Visit our Privacy Policy to learn more. By continuing to use the site, you agree to this use of cookies and data.
  • în România
  • Lista ţărilor
  • Pe 7 zile
  • Temperatura apei
  • Hartă satelitară
  • Meteo pe hartă
  • Widget-uri
  • user-avatar
    Intrare

    Meteo pe oră la Shahovo

    Astăzi, 18 Decembrie, Marţi

    Timp Temperatura Precipitaţii Vânt Presiune Umiditate
    00:00 -12°C° 0 mm 3 m/s 755 mmHg 91%
    01:00 -13°C° 0 mm 3 m/s 756 mmHg 90%
    02:00 -10°C° 0 mm 2 m/s 756 mmHg 88%
    03:00 -12°C° 0 mm 2 m/s 756 mmHg 88%
    04:00 -12°C° 0 mm 2 m/s 756 mmHg 88%
    05:00 -12°C° 0 mm 2 m/s 755 mmHg 88%
    06:00 -12°C° 0 mm 2 m/s 755 mmHg 88%
    07:00 -12°C° 0 mm 2 m/s 756 mmHg 88%
    08:00 -12°C° 0 mm 2 m/s 756 mmHg 88%
    09:00 -12°C° 0 mm 2 m/s 756 mmHg 87%
    10:00 -12°C° 0 mm 2 m/s 756 mmHg 85%
    11:00 -10°C° 0 mm 2 m/s 756 mmHg 84%
    12:00 -10°C° 0 mm 2 m/s 756 mmHg 84%
    13:00 -10°C° 0 mm 2 m/s 756 mmHg 84%
    14:00 -10°C° 0 mm 2 m/s 756 mmHg 83%
    15:00 -10°C° 0 mm 2 m/s 756 mmHg 84%
    16:00 -10°C° 0 mm 2 m/s 756 mmHg 85%
    17:00 -10°C° 0 mm 2 m/s 756 mmHg 86%
    18:00 -10°C° 0 mm 2 m/s 756 mmHg 87%
    19:00 -10°C° 0 mm 2 m/s 756 mmHg 87%
    20:00 -10°C° 0 mm 2 m/s 757 mmHg 88%
    21:00 -10°C° 0 mm 2 m/s 757 mmHg 88%
    22:00 -10°C° 0 mm 2 m/s 757 mmHg 88%
    23:00 -10°C° 0 mm 2 m/s 757 mmHg 88%

    Mâine, 19 Decembrie, Miercuri

    Timp Temperatura Precipitaţii Vânt Presiune Umiditate
    00:00 -10°C° 0 mm 2 m/s 757 mmHg 89%
    01:00 -10°C° 0 mm 2 m/s 757 mmHg 90%
    02:00 -10°C° 0 mm 2 m/s 757 mmHg 90%
    03:00 -10°C° 0 mm 2 m/s 757 mmHg 91%
    04:00 -10°C° 0 mm 2 m/s 757 mmHg 91%
    05:00 -10°C° 0 mm 1 m/s 757 mmHg 91%
    06:00 -12°C° 0 mm 2 m/s 757 mmHg 91%
    07:00 -12°C° 0 mm 2 m/s 757 mmHg 91%
    08:00 -12°C° 0 mm 2 m/s 757 mmHg 91%
    09:00 -12°C° 0 mm 2 m/s 757 mmHg 90%
    10:00 -12°C° 0 mm 2 m/s 757 mmHg 89%
    11:00 -10°C° 0 mm 2 m/s 758 mmHg 87%
    12:00 -10°C° 0 mm 2 m/s 758 mmHg 87%
    13:00 -10°C° 0 mm 2 m/s 757 mmHg 86%
    14:00 -9°C° 0 mm 1 m/s 757 mmHg 86%
    15:00 -10°C° 0 mm 2 m/s 757 mmHg 87%
    16:00 -12°C° 0 mm 2 m/s 757 mmHg 89%
    17:00 -12°C° 0 mm 2 m/s 758 mmHg 90%
    18:00 -12°C° 0 mm 2 m/s 757 mmHg 91%
    19:00 -13°C° 0 mm 2 m/s 757 mmHg 91%
    20:00 -13°C° 0 mm 2 m/s 757 mmHg 92%
    21:00 -13°C° 0 mm 2 m/s 757 mmHg 91%
    22:00 -12°C° 0 mm 1 m/s 757 mmHg 91%
    23:00 -12°C° 0 mm 1 m/s 757 mmHg 91%

    Poimâine, 20 Decembrie, Joi

    Timp Temperatura Precipitaţii Vânt Presiune Umiditate
    00:00 -12°C° 0 mm 1 m/s 757 mmHg 91%
    01:00 -12°C° 0 mm 1 m/s 757 mmHg 91%
    02:00 -12°C° 0 mm 1 m/s 758 mmHg 90%
    03:00 -12°C° 0 mm 1 m/s 757 mmHg 91%
    04:00 -13°C° 0 mm 1 m/s 757 mmHg 92%
    05:00 -13°C° 0 mm 1 m/s 757 mmHg 92%
    06:00 -13°C° 0 mm 1 m/s 757 mmHg 93%
    07:00 -13°C° 0 mm 1 m/s 757 mmHg 93%
    08:00 -13°C° 0 mm 1 m/s 757 mmHg 94%
    09:00 -13°C° 0 mm 1 m/s 757 mmHg 92%
    10:00 -13°C° 0 mm 1 m/s 757 mmHg 90%
    11:00 -12°C° 0 mm 1 m/s 757 mmHg 88%
    12:00 -12°C° 0 mm 1 m/s 757 mmHg 87%
    13:00 -12°C° 0 mm 1 m/s 756 mmHg 87%
    14:00 -11°C° 0 mm 1 m/s 756 mmHg 86%
    15:00 -12°C° 0 mm 1 m/s 756 mmHg 88%
    16:00 -12°C° 0 mm 1 m/s 756 mmHg 91%
    17:00 -14°C° 0 mm 2 m/s 756 mmHg 93%
    18:00 -14°C° 0 mm 2 m/s 756 mmHg 93%
    19:00 -14°C° 0 mm 2 m/s 755 mmHg 94%
    20:00 -14°C° 0 mm 2 m/s 755 mmHg 94%
    21:00 -14°C° 0 mm 2 m/s 755 mmHg 93%
    22:00 -14°C° 0 mm 2 m/s 755 mmHg 93%
    23:00 -13°C° 0 mm 2 m/s 755 mmHg 92%

    21 Decembrie, Vineri

    Timp Temperatura Precipitaţii Vânt Presiune Umiditate
    00:00 -13°C° 0 mm 2 m/s 754 mmHg 92%
    01:00 -12°C° 0 mm 2 m/s 754 mmHg 91%
    02:00 -12°C° 0 mm 3 m/s 754 mmHg 90%
    03:00 -12°C° 0 mm 3 m/s 753 mmHg 90%
    04:00 -12°C° 0 mm 3 m/s 753 mmHg 89%
    05:00 -10°C° 0 mm 3 m/s 752 mmHg 89%
    06:00 -10°C° 0 mm 3 m/s 752 mmHg 89%
    07:00 -10°C° 0 mm 3 m/s 752 mmHg 88%
    08:00 -10°C° 0 mm 3 m/s 751 mmHg 88%
    09:00 -9°C° 0 mm 3 m/s 751 mmHg 86%
    10:00 -10°C° 0 mm 4 m/s 751 mmHg 85%
    11:00 -9°C° 0 mm 4 m/s 750 mmHg 84%
    12:00 -9°C° 0 mm 4 m/s 750 mmHg 84%
    13:00 -9°C° 0 mm 4 m/s 749 mmHg 85%
    14:00 -9°C° 0 mm 4 m/s 749 mmHg 86%
    15:00 -9°C° 0.2 mm 4 m/s 748 mmHg 87%
    16:00 -9°C° 0.2 mm 4 m/s 748 mmHg 88%
    17:00 -9°C° 0.2 mm 4 m/s 747 mmHg 90%
    18:00 -8°C° 0.1 mm 4 m/s 747 mmHg 90%
    19:00 -8°C° 0.1 mm 4 m/s 747 mmHg 90%
    20:00 -8°C° 0.1 mm 4 m/s 746 mmHg 90%
    21:00 -7°C° 0.1 mm 4 m/s 746 mmHg 90%
    22:00 -7°C° 0.1 mm 4 m/s 746 mmHg 90%
    23:00 -7°C° 0.1 mm 4 m/s 745 mmHg 90%

    22 Decembrie, Sâmbătă

    Timp Temperatura Precipitaţii Vânt Presiune Umiditate
    00:00 -5°C° 0.1 mm 4 m/s 745 mmHg 91%
    01:00 -5°C° 0.1 mm 4 m/s 744 mmHg 91%
    02:00 -5°C° 0.1 mm 4 m/s 744 mmHg 92%
    03:00 -5°C° 0.1 mm 4 m/s 744 mmHg 92%
    04:00 -5°C° 0.1 mm 4 m/s 743 mmHg 92%
    05:00 -5°C° 0.1 mm 3 m/s 743 mmHg 92%
    06:00 -4°C° 0 mm 3 m/s 743 mmHg 93%
    07:00 -4°C° 0 mm 3 m/s 742 mmHg 93%
    08:00 -4°C° 0 mm 3 m/s 742 mmHg 93%
    09:00 -4°C° 0 mm 3 m/s 742 mmHg 92%
    10:00 -4°C° 0 mm 3 m/s 742 mmHg 91%
    11:00 -4°C° 0 mm 3 m/s 742 mmHg 91%
    12:00 -2°C° 0 mm 3 m/s 742 mmHg 90%
    13:00 -2°C° 0 mm 3 m/s 741 mmHg 90%
    14:00 -2°C° 0 mm 3 m/s 741 mmHg 90%
    15:00 -2°C° 0 mm 3 m/s 741 mmHg 90%
    16:00 -2°C° 0 mm 3 m/s 740 mmHg 91%
    17:00 -2°C° 0 mm 3 m/s 740 mmHg 91%
    18:00 -2°C° 0 mm 3 m/s 740 mmHg 91%
    19:00 -2°C° 0 mm 3 m/s 740 mmHg 91%
    20:00 -3°C° 0 mm 4 m/s 740 mmHg 90%
    21:00 -3°C° 0 mm 4 m/s 739 mmHg 90%
    22:00 -3°C° 0 mm 4 m/s 739 mmHg 90%
    23:00 -4°C° 0 mm 4 m/s 739 mmHg 90%

    23 Decembrie, Duminică

    Timp Temperatura Precipitaţii Vânt Presiune Umiditate
    00:00 -4°C° 0.1 mm 4 m/s 738 mmHg 90%
    01:00 -4°C° 0.1 mm 4 m/s 738 mmHg 90%
    02:00 -4°C° 0.1 mm 4 m/s 738 mmHg 90%
    03:00 -4°C° 0.1 mm 4 m/s 738 mmHg 90%
    04:00 -4°C° 0.1 mm 4 m/s 737 mmHg 90%
    05:00 -5°C° 0.1 mm 4 m/s 737 mmHg 90%
    06:00 -5°C° 0.2 mm 4 m/s 737 mmHg 90%
    07:00 -5°C° 0.2 mm 4 m/s 737 mmHg 90%
    08:00 -5°C° 0.2 mm 4 m/s 737 mmHg 90%
    09:00 -5°C° 0.1 mm 4 m/s 737 mmHg 89%
    10:00 -5°C° 0.1 mm 4 m/s 737 mmHg 89%
    11:00 -5°C° 0.1 mm 4 m/s 737 mmHg 88%
    12:00 -5°C° 0.1 mm 4 m/s 737 mmHg 88%
    13:00 -5°C° 0.1 mm 3 m/s 737 mmHg 88%
    14:00 -5°C° 0.1 mm 3 m/s 737 mmHg 89%
    15:00 -5°C° 0.1 mm 3 m/s 737 mmHg 89%
    16:00 -6°C° 0.1 mm 3 m/s 737 mmHg 90%
    17:00 -6°C° 0.1 mm 3 m/s 737 mmHg 91%
    18:00 -6°C° 0.1 mm 3 m/s 737 mmHg 91%
    19:00 -6°C° 0.1 mm 3 m/s 737 mmHg 91%
    20:00 -6°C° 0.1 mm 3 m/s 737 mmHg 91%
    21:00 -7°C° 0.1 mm 3 m/s 737 mmHg 92%
    22:00 -7°C° 0.1 mm 3 m/s 737 mmHg 92%
    23:00 -7°C° 0.1 mm 3 m/s 737 mmHg 93%
    Arată mai mult